RH
92 85 77 59 24 11 15 14 13 11 10 9 8 8 7 7 7 6 6 6 5 6 5 5 5 4 6 5 6 10 12 20 34 40 31 17 11 14 13 11 12 19 38 50 49 44 39 36 31 32 34 31 30 29 32 32 29 28 26 24 22 20 19 18 20 20 19 20 23 25 24 25 29 30 30 32 30 29 31 31 32 33 33 34 39 42 45 55
93 92 89 75 39 16 14 13 14 12 10 10 9 9 7 7 7 6 7 5 6 5 5 5 4 5 5 5 9 13 17 28 37 31 21 16 12 12 13 14 11 18 36 44 39 34 31 30 29 31 29 27 27 27 31 30 28 28 23 23 20 18 17 15 17 18 17 19 23 24 24 24 26 28 29 31 31 31 33 33 33 36 39 39 42 44 47 55
93 95 95 92 67 39 23 15 14 11 10 11 10 9 8 8 7 6 6 6 7 5 5 5 4 6 5 8 12 14 29 38 29 19 17 16 13 12 12 14 14 17 31 36 30 27 27 28 28 29 25 22 21 24 28 27 27 25 21 22 19 16 16 15 16 17 17 18 22 24 23 23 24 26 28 28 30 33 32 32 34 38 43 43 43 44 48 53
93 95 96 96 85 68 45 23 15 11 9 10 10 10 8 8 7 7 6 6 7 5 5 4 4 6 5 11 13 19 40 35 13 12 16 13 13 15 11 13 17 20 27 26 24 23 23 26 26 23 20 17 16 20 22 24 26 21 20 20 16 16 16 15 15 16 16 17 21 23 24 25 24 25 27 27 29 31 28 28 31 35 41 44 44 44 47 50
93 93 94 90 83 78 58 30 17 12 9 10 9 9 8 8 7 7 7 7 6 6 5 4 5 7 9 16 17 28 39 20 5 13 15 12 14 15 13 13 15 24 28 22 20 20 20 23 21 19 18 12 12 16 15 18 21 20 20 17 14 17 16 15 15 15 16 17 20 23 25 24 25 26 26 26 27 25 23 23 25 30 36 41 43 43 45 47
94 91 90 87 78 64 46 30 19 12 10 9 9 9 8 8 8 7 7 6 7 6 5 4 6 9 13 19 24 35 31 10 7 14 14 13 13 17 17 11 12 26 29 19 18 17 18 21 20 20 16 9 9 11 10 13 18 19 19 16 15 17 16 15 14 15 17 17 21 23 23 23 26 27 24 25 23 19 19 20 23 28 33 38 41 43 44 44
97 94 89 85 78 58 38 27 18 12 10 9 10 9 8 8 7 8 7 6 8 8 6 5 8 12 18 28 37 37 23 10 10 13 14 13 13 19 19 13 16 29 25 15 15 13 16 20 19 17 12 8 8 8 8 11 16 17 17 16 15 16 16 15 14 15 17 18 20 20 21 24 26 25 23 24 21 20 21 21 24 29 33 36 40 42 43 44
97 95 89 83 82 70 47 29 16 10 9 9 10 9 9 8 8 8 6 7 9 9 8 7 13 19 24 39 41 26 15 11 11 13 14 14 14 17 20 22 26 29 20 12 13 11 14 18 17 13 9 7 6 7 8 10 15 17 17 15 15 15 15 14 14 15 17 18 18 20 23 25 23 22 24 24 20 22 23 25 28 31 33 34 39 42 44 46
96 93 91 87 88 83 62 37 18 10 9 9 9 9 9 8 9 8 6 8 10 10 10 11 22 26 31 42 32 15 13 11 10 13 15 16 18 20 25 31 32 25 16 12 12 10 11 14 14 10 8 7 6 7 8 10 14 15 16 15 14 15 13 14 14 14 16 17 18 22 24 23 22 22 24 22 21 24 25 28 31 32 34 35 38 40 44 47
98 95 95 91 87 84 68 42 21 11 10 9 9 8 8 8 8 7 7 8 10 11 12 18 29 36 45 45 25 14 14 10 14 17 16 19 25 29 30 31 31 23 14 13 11 9 9 10 11 8 7 7 6 8 8 9 11 12 14 13 14 13 12 14 13 14 15 16 20 23 23 22 23 24 23 20 22 26 28 31 33 34 35 35 36 39 44 47
100 98 99 93 83 77 63 42 22 13 11 10 9 8 8 8 7 8 8 8 11 13 18 29 38 48 56 42 19 13 12 13 19 22 20 20 23 26 23 25 30 23 14 12 11 9 8 7 8 7 7 7 7 8 7 8 9 9 11 11 12 12 12 12 12 14 15 19 21 20 22 26 28 25 19 20 24 27 29 32 34 35 35 36 36 39 45 48
99 100 100 97 91 84 70 48 24 13 11 10 8 8 7 7 7 8 8 10 14 19 32 41 44 55 56 34 18 15 13 16 20 21 22 20 19 18 16 20 26 23 15 12 11 10 9 7 7 7 7 7 7 8 7 7 8 9 10 11 12 11 12 12 11 13 16 22 20 20 28 32 32 26 18 22 25 26 30 32 34 35 35 38 37 39 46 47
99 100 98 97 98 96 83 58 31 15 12 10 8 8 8 8 8 8 11 18 25 38 50 48 51 66 54 25 16 17 14 16 19 19 19 19 18 19 19 20 23 24 18 12 11 11 9 7 8 8 6 6 7 7 8 7 8 9 10 11 12 14 14 12 12 15 18 22 20 22 31 29 26 23 20 25 27 27 31 32 33 34 35 38 39 41 45 46
100 99 96 93 88 83 70 51 33 18 13 11 8 9 11 10 8 10 21 34 43 54 53 48 63 72 47 20 14 17 19 18 19 19 18 19 20 19 21 22 23 24 20 15 13 10 9 9 8 7 5 6 8 7 8 9 9 9 10 11 13 15 15 13 14 17 20 22 21 23 25 20 19 21 23 27 27 27 31 32 32 33 35 38 39 43 45 46
100 97 94 87 69 54 45 38 28 18 14 11 9 12 12 7 9 22 40 53 53 53 54 58 71 64 34 18 16 18 22 22 21 19 18 19 19 19 19 22 22 20 19 16 13 11 10 9 8 8 7 7 8 8 10 11 10 9 12 15 13 13 16 17 17 17 21 24 23 23 24 18 15 20 26 28 26 26 29 31 31 33 35 37 39 42 44 45
100 97 94 85 60 40 35 31 21 16 13 9 10 11 8 12 26 42 53 56 49 55 71 70 64 52 26 16 17 17 20 20 19 18 19 17 15 15 17 20 19 16 16 14 12 11 10 10 9 8 8 7 8 9 10 12 13 11 14 16 13 13 17 22 21 16 20 26 25 23 22 19 16 21 28 27 26 26 27 29 32 33 34 37 39 41 42 44
99 96 97 86 57 38 35 28 18 17 11 7 12 8 11 33 51 57 59 59 58 69 82 67 50 45 26 14 15 13 14 16 15 16 17 15 13 14 16 18 16 14 14 13 12 10 9 11 8 8 8 8 8 8 11 14 15 14 14 15 12 13 15 19 23 19 19 24 26 24 21 21 20 24 29 28 26 27 27 29 31 33 35 38 39 39 40 44
97 96 99 84 53 36 33 27 20 16 9 9 13 6 18 49 63 66 70 71 76 77 75 64 50 37 22 18 16 10 12 14 13 13 12 12 13 14 15 15 14 12 12 12 12 9 9 10 8 9 9 8 8 8 12 15 14 14 15 14 13 13 13 15 22 21 20 24 24 25 24 21 23 27 30 28 27 27 27 28 30 32 35 38 40 39 39 42
99 96 90 74 47 31 28 26 18 16 18 13 9 10 31 61 69 71 72 65 61 51 41 43 39 22 13 16 14 11 13 12 12 11 9 12 14 14 13 13 13 12 11 11 11 10 9 9 9 9 8 8 8 8 11 12 12 13 13 14 12 12 13 13 18 18 20 25 23 23 25 21 22 29 31 29 28 29 29 28 30 32 34 37 40 39 38 41
98 87 69 56 40 25 22 21 15 22 28 16 15 26 34 43 42 42 46 40 32 21 13 17 21 16 11 10 8 10 11 10 12 9 9 13 13 13 11 11 12 12 10 9 9 10 8 9 10 9 8 7 8 8 9 9 10 11 12 13 12 11 12 11 15 18 20 24 22 21 23 21 21 24 29 31 31 31 31 32 32 32 34 36 38 38 39 40
94 77 56 46 36 22 17 17 17 27 30 24 33 32 19 17 16 17 22 18 13 10 9 8 10 12 10 8 7 8 9 10 10 9 10 12 11 13 12 12 14 12 10 8 8 9 7 9 9 7 7 6 7 7 8 9 10 11 12 12 12 11 11 11 16 21 21 21 21 20 21 22 21 21 27 33 34 33 32 33 34 34 34 36 38 39 39 39
94 72 55 46 34 18 13 14 19 28 30 35 40 22 13 19 18 19 19 13 9 8 9 8 7 9 8 8 8 9 11 11 10 9 11 12 12 13 12 12 14 12 10 8 8 10 9 9 7 5 6 6 7 6 7 10 10 11 12 12 12 11 11 15 20 23 22 20 19 21 23 23 22 22 26 31 34 34 32 31 33 35 36 37 38 40 39 40
89 62 51 42 30 19 12 12 21 33 36 39 36 19 19 26 19 20 20 15 13 8 8 9 9 9 8 8 9 11 12 11 10 9 10 13 13 12 13 13 13 11 10 9 9 10 9 7 5 5 5 5 6 6 7 10 10 11 11 12 13 11 13 19 23 24 24 21 18 20 24 24 23 23 24 28 31 31 31 31 31 33 37 38 37 37 39 40
71 52 49 39 33 23 7 11 28 38 40 37 33 26 25 27 23 21 18 15 13 9 9 9 8 10 9 11 12 12 12 11 11 9 9 12 12 12 13 13 12 11 11 10 8 8 7 5 4 5 5 6 7 6 7 9 11 11 11 12 12 11 14 17 20 23 24 23 20 20 27 27 24 24 24 26 28 29 30 31 33 33 35 37 36 36 38 39
53 46 46 38 40 27 7 23 40 35 32 29 28 30 29 28 27 24 20 16 12 10 11 11 11 11 11 13 14 12 13 12 11 9 8 11 11 11 12 12 12 12 11 10 8 7 5 5 5 5 6 7 7 6 7 9 11 12 11 11 11 11 14 14 17 22 26 28 24 22 30 28 21 22 23 23 26 29 31 32 35 37 36 38 39 37 37 37
48 44 42 37 44 36 15 23 39 33 26 24 23 29 34 30 28 28 25 18 12 10 12 15 15 13 13 14 13 13 14 13 11 10 10 10 9 10 11 12 11 12 11 10 9 7 6 6 6 6 7 7 6 6 7 8 10 12 10 11 11 11 13 14 17 22 25 27 22 21 29 29 20 20 20 20 24 29 33 33 33 37 39 39 39 38 37 36
52 42 38 36 42 52 41 27 36 36 22 21 26 29 32 27 24 29 27 19 13 11 12 16 17 15 15 14 12 14 15 13 11 11 10 10 9 9 11 12 12 12 10 10 11 8 6 7 7 7 6 6 6 6 7 7 9 11 9 10 12 11 12 15 18 21 20 19 20 20 24 29 25 19 18 20 24 29 35 36 33 35 38 37 37 37 36 35
55 40 35 33 31 52 66 56 54 42 21 23 29 28 28 26 24 27 27 20 13 11 12 15 16 15 14 14 13 14 13 12 13 13 11 10 10 9 11 12 12 12 10 11 12 8 6 7 8 7 6 6 6 6 6 6 8 9 8 9 11 11 13 14 16 19 17 20 25 21 20 30 30 21 20 23 26 31 35 36 34 34 35 36 36 35 34 35
55 41 31 28 25 40 69 78 65 39 25 30 27 26 31 32 28 23 22 20 11 10 11 12 16 15 14 15 14 14 13 12 13 13 11 10 10 11 12 11 11 12 11 11 10 8 7 7 6 6 6 6 5 5 6 7 8 8 8 10 11 11 11 12 15 18 19 22 26 21 19 29 30 20 20 26 29 30 29 29 32 33 33 35 34 33 33 35
53 39 25 29 39 52 68 74 56 31 27 29 22 27 36 34 27 20 20 20 11 9 11 11 14 13 14 16 14 14 14 12 12 13 12 11 10 11 12 10 10 12 12 12 10 8 7 7 6 6 6 5 5 5 5 6 7 8 9 11 11 11 11 12 14 17 21 24 23 19 16 23 27 19 16 23 28 24 18 19 24 29 33 34 34 32 31 33
47 33 23 30 48 64 61 47 40 33 28 28 25 28 32 27 20 19 21 16 10 11 11 10 12 12 12 13 12 13 12 12 12 13 14 12 11 12 12 11 12 13 14 13 12 9 8 8 7 6 5 5 5 5 6 7 7 8 10 11 12 16 17 17 18 20 25 27 22 17 14 19 26 20 12 15 19 17 13 13 15 21 30 34 34 31 29 31
40 27 19 16 32 61 57 32 34 39 32 32 31 21 20 20 18 18 18 11 9 12 10 11 12 11 11 11 11 11 10 11 12 13 14 12 12 12 12 13 13 15 17 15 13 11 9 9 7 6 5 5 6 7 8 8 7 8 10 11 16 21 23 24 24 25 28 26 20 15 13 17 23 19 13 13 14 14 13 12 11 13 23 31 34 32 30 30
35 22 14 12 35 68 67 48 50 54 46 43 33 14 12 19 19 16 13 9 10 12 10 12 11 10 12 11 10 9 8 10 11 12 12 11 12 12 11 11 11 14 15 13 13 13 11 11 8 7 7 6 6 7 8 8 7 9 10 12 17 20 25 28 25 25 27 22 16 14 15 20 21 17 14 13 13 13 12 11 11 12 18 26 32 32 30 30
28 18 15 24 49 66 66 67 70 67 61 46 24 11 13 18 17 13 11 9 9 11 11 12 12 11 12 11 10 9 8 9 10 11 11 11 12 11 10 10 10 11 12 12 13 12 14 15 10 8 8 6 6 5 6 7 8 9 8 10 15 16 20 24 23 23 24 19 15 16 22 24 20 16 14 13 12 11 10 10 11 15 18 22 27 30 30 29
24 27 36 44 55 57 59 70 72 69 61 36 13 10 14 16 14 12 12 9 7 9 9 10 12 11 11 10 9 9 9 9 10 10 11 12 12 11 11 10 10 11 11 13 13 11 13 13 8 7 7 6 6 5 4 6 9 9 7 9 13 13 14 17 17 17 17 18 17 19 24 20 14 14 15 14 12 10 11 11 12 17 20 21 25 28 28 29
37 44 47 45 50 55 61 69 70 67 52 24 9 10 11 11 11 10 11 10 7 8 8 8 10 10 10 10 9 10 10 10 11 12 11 11 12 11 10 9 9 11 11 12 13 12 13 11 7 7 7 6 6 5 4 7 9 9 8 10 11 9 11 14 16 15 16 19 18 18 23 19 12 15 15 13 12 10 10 11 11 15 19 23 27 28 27 28
60 57 47 42 47 55 64 71 70 63 43 21 11 10 8 7 7 7 11 13 10 8 9 9 9 9 9 8 8 9 10 9 10 12 12 11 11 10 10 10 9 10 10 10 12 11 12 11 7 7 8 6 5 5 4 5 7 9 9 9 8 8 11 14 17 19 20 21 17 15 20 20 16 16 14 11 11 10 9 9 8 12 19 24 26 27 28 27
71 60 50 49 52 54 62 72 68 53 37 24 18 14 8 6 5 6 9 13 12 10 11 11 10 9 9 9 8 8 9 10 10 12 12 12 11 10 10 11 10 10 10 10 11 11 10 12 9 7 8 7 5 6 6 5 5 8 9 7 8 13 16 16 17 20 21 21 19 16 16 17 17 15 13 13 12 11 10 9 8 9 16 23 23 25 28 27
63 45 37 46 55 52 56 65 58 46 36 27 21 17 10 6 6 5 6 8 9 10 12 11 10 11 11 10 9 9 10 9 9 11 12 12 12 10 9 10 11 11 10 9 11 10 10 12 11 7 7 7 5 6 7 7 6 6 7 7 9 12 14 15 16 17 19 19 19 18 16 16 16 13 12 13 12 10 10 10 9 8 11 18 22 23 27 29
50 36 28 44 58 51 50 54 46 42 39 27 18 14 10 7 7 5 5 5 6 8 10 9 9 11 11 10 10 10 11 10 9 10 11 11 12 12 10 9 10 11 10 10 11 11 11 13 12 9 7 7 7 7 6 6 7 6 7 9 10 10 11 13 13 14 16 18 18 18 17 15 13 12 11 11 11 11 10 10 9 8 7 11 19 22 25 29
50 42 32 46 58 51 47 46 38 36 36 28 18 12 10 9 8 6 5 4 5 5 6 6 8 8 9 10 10 10 11 11 10 10 10 10 11 12 10 9 9 10 11 11 12 12 12 13 13 10 8 8 7 6 5 4 5 6 7 9 9 10 12 14 15 14 14 16 16 17 18 15 10 11 11 11 11 9 9 9 8 9 7 7 15 20 24 29
49 38 26 34 47 46 43 38 29 26 27 25 19 14 13 13 11 8 6 5 5 5 5 6 7 7 8 8 8 9 10 11 11 10 10 9 10 11 9 9 10 9 10 12 11 11 12 13 14 12 10 8 6 5 5 4 4 5 6 7 7 8 11 14 17 17 13 13 13 13 16 15 10 10 11 11 11 8 8 9 7 8 7 7 14 19 23 30
45 35 25 30 40 44 45 39 27 20 20 19 17 14 14 15 14 10 8 7 6 6 6 6 6 7 8 8 8 9 9 10 10 9 8 8 8 8 8 8 9 9 10 11 10 11 13 14 17 17 12 9 7 5 5 4 3 4 5 5 6 7 8 10 13 15 14 13 14 15 17 15 10 10 11 11 10 8 7 8 7 8 7 8 16 22 25 32
46 41 33 37 44 46 45 38 28 23 21 20 18 18 17 16 15 14 12 10 8 7 7 6 6 7 7 7 8 8 8 9 9 7 7 7 6 6 7 7 9 9 9 11 11 11 14 17 19 20 19 17 15 11 9 7 6 5 4 4 6 6 6 8 10 12 15 14 15 16 16 14 11 12 14 12 10 9 7 6 7 8 8 10 20 27 28 34
47 44 36 35 42 46 43 34 29 30 30 29 29 29 26 21 18 17 16 15 11 8 8 7 7 7 6 6 7 7 8 8 9 8 7 7 6 6 7 8 10 9 8 16 19 12 12 18 19 20 22 22 22 19 13 11 9 7 6 4 5 5 6 8 10 13 15 15 16 15 14 13 11 12 14 12 11 11 8 7 6 6 10 18 27 33 34 38
48 46 36 32 34 40 39 31 29 34 35 36 38 35 29 25 21 16 16 17 14 12 12 11 9 9 8 8 9 9 8 7 8 9 9 9 8 7 8 10 11 12 14 24 26 18 14 18 18 20 21 18 18 18 13 11 11 9 8 6 5 5 5 7 10 12 13 15 17 18 17 14 11 11 13 11 10 11 9 8 7 7 14 23 31 37 38 40
54 50 41 45 47 39 32 29 33 40 39 40 43 38 32 30 27 22 19 17 15 14 15 15 14 15 14 12 12 12 10 9 9 9 10 11 10 9 11 12 12 16 21 23 23 23 24 23 20 21 20 15 14 14 11 11 11 10 9 7 5 5 5 6 7 10 12 13 16 18 18 16 13 11 11 11 11 11 9 9 7 8 13 19 28 37 38 39
52 48 40 50 57 46 40 42 46 46 42 41 42 37 35 36 32 28 25 21 18 14 15 17 17 17 17 16 16 16 15 15 15 13 12 12 11 11 12 11 11 16 19 18 18 24 29 28 22 20 20 17 13 12 11 10 11 10 9 8 6 7 7 7 7 8 10 12 13 15 18 17 14 10 9 10 10 9 9 8 7 7 7 15 30 38 36 36
46 43 38 43 48 47 48 50 49 45 38 39 43 40 39 41 36 29 28 29 28 21 17 20 18 15 15 15 16 21 21 20 20 18 16 15 14 13 12 11 10 12 14 15 16 21 29 32 26 20 20 18 14 13 12 10 10 10 10 9 8 8 6 7 8 7 8 10 9 12 17 17 12 9 9 9 8 8 8 8 8 6 6 16 31 35 32 33
47 47 45 46 47 45 43 43 45 44 37 38 44 40 35 36 37 34 33 35 38 32 23 21 20 18 18 17 20 26 25 24 26 25 24 24 20 16 14 13 11 11 12 14 17 21 29 32 26 21 21 19 15 14 12 11 11 10 10 9 9 8 7 7 7 7 8 9 7 9 14 15 11 9 8 9 8 8 8 8 8 8 10 18 28 31 30 32
51 49 49 53 55 48 42 41 44 47 45 40 38 35 32 35 38 41 39 33 33 36 31 27 29 29 27 25 27 29 25 26 32 30 28 29 25 21 21 19 16 16 15 16 20 24 28 29 26 25 27 22 15 14 13 12 11 10 10 10 9 9 8 7 7 7 8 9 10 10 11 11 11 10 9 9 9 8 9 10 10 12 16 21 27 30 31 33
59 53 47 52 58 51 44 42 39 42 43 36 33 36 40 41 41 45 47 37 29 33 33 33 37 36 33 33 33 30 27 27 28 25 23 24 23 22 24 23 21 22 22 23 24 25 27 31 29 29 32 26 17 14 13 12 15 15 11 10 9 9 9 8 7 7 7 8 10 10 10 10 11 10 8 9 10 8 10 11 11 15 22 27 29 30 32 34
Wind_Speed
22 22 22 21 20 20 21 21 20 20 21 21 22 22 22 21 22 22 23 23 23 24 24 25 24 25 24 24 24 22 22 21 14 9 11 12 9 9 13 11 11 16 21 20 20 18 17 15 14 14 11 8 6 5 7 6 5 4 4 2 1 1 2 3 5 3 3 7 10 12 12 8 10 10 6 6 7 10 11 8 9 6 4 9 15 22 26 24
22 22 23 22 21 21 21 21 20 20 21 22 22 22 22 22 22 22 23 24 24 24 24 25 24 24 24 23 21 19 21 18 13 14 12 6 6 7 8 13 15 19 23 21 22 20 17 14 14 14 10 6 6 6 7 6 6 6 3 2 1 1 3 2 4 4 3 7 11 12 12 8 10 11 8 9 10 11 11 9 11 8 9 14 19 24 26 25
23 23 23 22 22 22 22 22 21 20 21 22 23 24 23 23 23 23 23 24 25 25 25 25 24 23 23 21 18 17 17 14 13 9 4 2 8 10 2 15 20 22 24 20 20 18 14 14 15 13 9 6 6 6 7 6 6 6 4 3 2 1 1 2 4 5 4 7 12 12 11 9 10 10 9 10 10 12 11 10 13 11 13 17 20 24 25 25
23 23 23 23 23 23 23 23 22 21 22 23 24 24 24 24 24 24 23 24 25 26 25 24 24 22 20 18 15 14 12 13 8 4 6 6 12 10 1 15 23 24 21 16 16 16 13 14 15 12 8 7 6 7 8 7 6 5 5 5 1 2 2 3 5 5 4 7 11 12 11 10 11 10 9 9 9 10 10 11 14 14 16 19 20 23 24 24
24 24 24 23 23 23 23 23 23 23 23 24 25 25 25 26 25 25 24 24 25 25 24 24 23 21 17 15 11 10 9 8 2 7 1 12 13 8 1 13 22 24 18 14 14 15 14 14 13 10 8 7 8 8 9 10 7 5 6 8 2 1 3 2 4 6 6 7 11 13 12 10 11 10 10 10 8 6 8 12 13 14 17 20 22 22 22 22
24 24 24 24 24 24 24 24 24 24 24 25 26 27 27 27 26 26 26 26 25 24 23 22 21 18 14 10 6 5 7 6 4 3 9 12 10 6 3 10 19 22 16 13 15 15 14 14 12 10 9 9 10 10 9 11 10 7 7 9 6 5 4 1 4 8 9 9 11 13 11 11 12 11 10 12 6 2 5 11 12 13 18 22 23 21 21 20
24 25 25 24 24 25 25 25 24 25 25 26 27 28 28 28 28 28 27 26 25 23 22 21 19 15 10 6 3 3 8 11 10 9 12 9 6 4 5 11 18 21 16 15 16 15 15 16 15 12 10 10 11 12 9 9 11 9 7 9 8 6 6 4 4 8 11 11 11 11 11 13 13 10 9 12 6 4 3 10 12 14 18 22 22 20 20 20
24 25 25 25 25 26 26 25 25 26 26 27 29 29 29 30 30 30 29 27 24 22 21 19 16 10 5 1 3 7 9 10 9 7 10 5 3 5 7 13 18 19 18 19 18 16 16 17 17 12 11 11 10 11 10 8 11 11 10 8 7 7 7 6 5 8 12 10 10 12 12 14 13 8 9 12 8 4 5 11 12 14 17 19 20 20 19 18
24 25 25 25 26 27 27 26 26 27 27 28 29 30 30 31 31 31 30 28 24 22 19 17 12 5 2 2 6 9 7 6 5 5 5 4 2 4 8 13 18 19 18 20 19 18 15 15 18 15 12 11 11 10 10 9 8 9 12 10 9 9 8 7 7 9 11 9 10 14 12 12 11 7 8 11 8 6 8 13 13 15 17 18 18 19 18 18
24 25 25 26 26 27 27 27 28 28 28 29 30 30 31 32 32 32 30 27 24 21 17 14 7 3 4 4 8 8 4 4 3 4 6 5 1 5 8 10 16 20 18 19 20 20 17 14 16 14 10 10 10 10 10 10 5 4 9 11 10 10 7 7 9 10 10 10 13 14 12 12 12 7 7 11 11 8 10 13 14 15 16 17 17 17 17 17
25 25 25 26 26 27 28 28 29 29 30 30 30 31 31 32 32 31 29 26 23 19 13 11 5 6 6 6 8 8 3 3 3 4 7 6 3 5 7 8 14 20 19 17 20 22 20 17 14 10 7 6 9 10 11 11 7 4 5 7 9 8 7 9 11 11 10 10 14 13 10 11 11 9 7 11 14 11 12 14 15 15 15 16 17 16 15 16
26 26 26 27 27 27 28 29 30 30 31 31 31 32 32 32 31 29 27 24 20 13 9 8 6 8 5 7 11 12 7 6 5 6 8 8 8 10 9 9 14 20 19 17 19 21 22 18 15 13 7 4 8 10 8 9 9 7 6 7 8 8 9 12 11 12 12 10 14 12 8 9 12 12 8 13 15 12 12 13 15 15 14 15 16 15 13 15
27 27 27 27 27 27 28 30 31 32 32 31 32 33 32 30 27 26 24 19 13 8 6 4 7 7 6 7 9 11 11 10 8 9 12 13 14 12 9 10 13 18 19 17 17 19 21 17 15 16 10 6 7 3 2 8 9 8 9 9 7 7 9 11 11 13 13 11 15 12 6 8 13 14 11 15 16 15 13 13 14 13 13 14 15 14 13 15
27 28 28 28 28 28 30 32 33 35 33 33 33 32 29 26 25 23 18 12 8 4 3 6 7 5 7 8 8 8 10 10 10 13 12 11 11 9 8 8 10 13 14 15 14 15 17 14 13 15 11 10 6 2 3 8 8 9 9 8 8 7 6 11 11 15 14 10 16 13 6 5 10 15 15 15 17 17 14 14 14 13 13 14 14 14 14 15
28 29 29 29 29 30 32 34 35 36 34 34 34 29 26 25 21 17 11 7 3 3 5 6 6 5 7 10 9 6 6 5 8 10 6 5 8 8 9 9 9 9 10 12 10 12 14 11 11 11 10 11 8 5 9 8 7 9 8 7 9 7 5 11 11 15 14 10 16 14 6 4 7 14 17 15 17 17 15 15 15 15 15 14 14 14 13 14
28 29 30 29 29 32 34 35 37 36 35 35 31 26 25 21 13 9 5 2 3 7 6 3 6 7 8 5 2 3 3 3 5 7 5 3 5 7 10 11 9 9 9 9 8 10 13 10 10 10 9 11 10 9 10 8 8 9 8 8 9 8 7 9 10 15 14 11 16 15 8 4 4 13 17 16 17 17 14 15 16 16 16 15 13 13 13 13
29 29 30 29 31 34 36 37 37 36 36 33 28 25 21 13 5 3 2 3 3 5 3 4 4 6 8 3 3 6 5 6 6 5 5 5 6 6 13 11 9 10 9 8 7 10 13 10 8 9 9 9 10 11 10 10 10 8 9 9 9 10 8 8 10 13 14 12 15 16 11 4 3 10 15 16 17 17 14 15 16 15 15 15 13 13 14 13
28 29 29 30 34 36 37 38 37 37 37 28 24 24 16 6 2 1 2 4 3 3 5 4 3 5 5 5 5 3 7 7 3 3 8 8 7 10 14 10 9 12 9 8 8 10 12 9 8 9 10 10 12 12 11 12 12 10 11 9 9 9 9 9 9 12 17 14 14 15 14 9 5 8 12 15 16 16 15 14 15 16 15 15 14 14 14 15
28 29 30 32 36 37 38 37 36 37 32 23 23 21 9 3 2 3 6 6 4 4 4 3 7 6 5 3 4 3 4 4 5 8 9 6 7 13 13 9 11 13 10 8 10 12 10 9 10 10 11 13 15 15 15 14 14 13 12 10 10 9 9 10 8 12 18 15 13 14 13 14 11 10 11 13 14 14 14 13 13 14 15 15 14 14 15 16
29 31 34 36 38 39 38 36 37 33 23 22 24 15 4 2 3 4 5 8 9 11 11 7 10 12 13 8 6 5 7 7 8 7 7 8 10 13 11 10 12 11 10 9 11 12 11 10 12 13 15 17 18 19 18 17 15 13 12 12 12 10 9 11 10 13 17 13 12 15 13 14 13 10 10 11 13 14 14 14 13 14 14 14 15 15 16 16
30 33 37 38 39 39 37 37 37 24 16 21 19 9 2 4 4 3 4 9 13 14 17 15 13 17 18 14 9 7 6 7 9 7 8 11 13 13 11 12 12 10 11 11 11 10 11 12 14 16 18 18 19 20 19 19 16 13 12 11 11 12 9 10 9 11 16 12 10 13 14 13 13 10 9 11 13 14 14 15 15 16 15 14 15 17 16 15
30 33 37 38 40 39 36 38 32 15 13 17 11 4 4 6 5 4 5 10 12 12 16 17 16 18 19 17 14 9 7 8 10 10 10 12 14 13 11 13 13 10 12 12 10 10 11 13 16 18 18 17 18 19 20 21 18 13 12 10 10 11 7 8 8 10 13 10 8 12 12 12 13 12 11 12 13 13 14 15 15 16 16 15 15 16 16 15
30 36 38 38 42 39 36 36 22 8 14 14 7 2 4 4 6 5 6 8 11 10 13 15 15 16 16 14 12 10 11 12 11 12 15 15 14 13 12 14 14 12 14 14 11 10 10 12 16 17 17 18 18 19 21 19 16 13 12 10 10 11 8 7 9 12 13 9 8 10 10 9 10 12 13 13 14 13 13 16 15 15 16 16 17 16 16 17
33 38 37 39 42 39 37 31 10 4 14 12 5 0 3 4 8 8 6 7 10 8 10 11 10 12 10 4 7 13 12 10 8 9 17 18 14 12 12 13 15 14 13 16 16 13 12 11 15 18 17 18 18 19 21 16 13 15 15 13 11 11 12 11 10 11 11 9 8 9 8 8 10 13 13 12 14 15 14 15 16 16 16 16 17 17 17 18
36 38 38 40 40 41 38 19 2 10 19 9 4 4 1 6 9 10 7 5 8 5 6 8 6 6 5 4 8 10 7 8 9 8 14 20 16 12 11 10 11 13 15 18 17 14 13 8 11 18 16 17 18 17 19 16 12 14 17 17 15 12 14 15 13 11 9 9 9 10 8 7 10 14 14 12 13 15 15 16 17 17 16 16 16 17 17 18
38 37 39 39 39 43 31 8 5 20 18 3 4 3 3 8 11 10 5 4 6 3 5 5 5 5 7 7 8 7 5 6 8 9 13 18 18 12 10 9 8 12 15 15 12 9 11 9 10 16 17 19 19 15 18 18 12 12 14 17 18 15 14 15 14 12 10 8 8 10 9 7 8 11 14 12 13 16 16 17 19 17 16 17 16 16 17 17
39 38 39 38 39 38 20 6 15 19 9 2 2 3 7 10 11 7 4 4 5 2 4 3 3 4 6 7 10 7 2 3 5 11 14 16 18 14 12 11 8 11 10 9 9 8 12 13 12 16 17 17 17 14 17 19 14 12 13 17 19 17 14 14 15 13 11 7 7 10 9 8 8 9 10 11 13 16 17 19 19 18 18 19 18 18 18 18
39 39 38 37 39 30 12 12 16 11 4 4 5 8 10 11 8 3 5 5 2 2 2 3 3 3 4 6 11 8 2 0 3 8 13 15 17 13 13 15 12 12 12 10 9 9 14 17 14 16 16 14 14 15 17 18 16 14 13 13 16 16 15 15 14 12 11 9 8 11 11 8 9 9 8 10 13 15 17 19 19 19 20 20 20 21 20 19
40 39 37 38 39 24 7 10 12 8 7 9 9 10 11 9 5 3 5 4 2 2 2 4 4 6 6 6 11 10 5 5 3 4 11 15 15 10 10 14 14 14 14 14 12 8 11 16 16 15 14 12 14 16 18 18 17 13 10 10 13 15 14 14 13 11 11 12 11 13 14 10 9 9 9 10 12 14 15 16 17 19 20 20 21 21 20 19
41 39 37 39 34 17 5 12 16 12 9 9 9 10 10 6 4 5 7 4 1 3 4 4 4 7 9 7 9 10 8 7 4 6 10 12 14 11 6 9 13 12 13 15 16 10 7 10 13 13 13 12 13 16 17 18 18 12 8 10 12 12 11 10 10 9 12 13 13 16 16 12 10 10 9 9 11 12 12 11 13 16 19 20 20 19 20 18
41 39 37 36 29 14 8 9 8 6 4 5 9 10 8 5 5 7 7 1 2 4 7 6 7 8 9 6 4 7 8 7 8 9 9 10 13 13 7 7 10 10 11 12 15 14 10 9 10 12 14 14 13 14 13 15 18 13 9 11 10 7 8 8 8 9 11 11 12 17 18 14 11 10 8 9 13 13 11 11 11 14 19 19 18 18 19 18
41 39 35 33 26 15 12 8 3 3 4 6 10 7 6 6 7 10 5 2 1 6 5 6 9 10 8 5 5 6 5 5 10 11 11 11 12 13 13 11 10 10 11 10 12 14 13 12 11 11 14 16 14 12 11 13 16 13 11 12 11 8 8 8 9 9 10 11 13 17 18 15 11 12 11 9 10 12 11 11 11 11 14 17 18 18 17 17
41 38 33 28 20 14 17 13 10 10 8 7 7 5 6 8 9 9 8 5 2 3 2 4 8 9 7 6 7 6 5 5 9 12 13 13 12 13 17 16 15 13 10 10 11 11 11 12 15 14 12 16 17 12 11 12 13 14 13 12 11 11 10 10 11 9 9 12 14 15 13 12 10 11 14 15 14 14 13 14 13 9 9 13 17 18 17 18
40 34 30 25 17 12 12 11 11 9 7 6 5 6 10 12 9 7 11 11 4 2 4 4 5 8 9 9 6 4 6 7 10 12 12 13 12 12 15 18 20 15 9 10 10 10 11 11 16 17 11 15 20 16 13 13 13 15 15 13 12 12 12 11 9 10 10 10 13 14 10 10 10 7 8 12 13 13 13 13 12 9 9 10 14 16 17 19
37 29 25 19 12 8 6 7 8 6 7 7 6 9 13 12 8 7 9 10 9 6 6 5 6 8 9 10 8 5 6 6 9 11 11 12 12 11 12 15 19 17 11 10 8 10 13 10 13 18 14 15 20 18 16 14 12 13 14 14 13 13 12 11 11 13 11 10 11 12 8 8 9 6 5 7 8 9 11 12 11 10 10 10 12 15 16 16
32 24 18 11 6 4 5 7 7 9 8 7 8 12 12 10 8 7 5 7 9 9 8 8 9 10 9 9 9 9 8 6 7 9 9 12 13 13 14 13 17 19 14 10 6 7 11 9 11 18 19 18 19 18 19 15 10 10 13 15 13 14 15 12 12 13 12 12 11 9 8 9 10 9 11 14 14 13 12 12 12 11 11 12 12 14 15 16
25 20 15 10 5 3 5 6 9 11 8 7 11 12 10 10 11 9 5 3 5 6 9 9 8 10 11 9 10 12 11 8 8 8 8 11 11 13 16 13 16 20 17 12 7 6 8 8 9 16 19 19 17 18 21 19 13 9 12 15 13 13 14 12 11 10 11 13 11 11 13 12 10 10 11 15 18 17 16 16 14 11 11 14 14 14 16 17
22 19 14 8 3 1 2 6 10 9 6 8 14 14 11 11 12 12 8 5 4 6 9 9 7 8 10 9 10 12 12 9 9 9 9 9 8 12 16 14 15 19 20 17 10 7 8 8 9 16 18 16 16 17 17 19 20 15 11 12 13 11 11 11 11 11 13 13 10 13 16 13 11 10 9 12 14 14 14 13 10 9 11 14 14 15 16 16
18 13 6 3 4 4 4 6 8 7 7 10 12 12 11 12 13 13 13 10 9 8 9 10 8 7 9 10 8 9 11 9 8 8 8 7 6 9 13 13 13 17 20 19 12 7 8 7 7 14 17 16 14 14 13 14 19 19 13 11 12 12 10 11 11 10 12 13 11 14 15 12 11 11 12 13 11 10 10 9 8 9 11 12 12 13 14 15
11 8 1 7 6 4 4 4 7 6 8 11 11 10 9 12 13 14 16 15 11 9 10 11 10 9 10 11 9 7 9 8 8 7 7 7 6 7 10 12 13 16 19 20 15 10 8 8 7 9 15 15 12 13 16 15 15 16 14 12 13 11 9 11 13 12 12 13 11 12 12 10 8 10 14 15 13 11 11 11 11 11 12 12 11 12 12 14
8 5 1 7 4 1 2 6 8 6 8 11 12 13 11 10 10 13 16 17 14 11 12 13 12 11 11 11 11 9 8 8 9 8 6 8 7 5 8 11 12 14 16 18 16 11 8 8 8 8 10 12 13 15 20 21 17 15 13 14 14 11 10 13 14 14 14 14 12 12 12 9 7 7 11 14 15 15 14 14 14 14 15 13 11 11 12 13
7 5 3 4 4 6 5 7 7 7 9 10 10 12 10 8 10 12 13 15 15 13 12 13 14 13 12 12 12 11 9 8 10 9 7 8 9 6 5 5 9 13 12 12 14 13 9 7 8 9 8 11 15 16 19 23 23 19 15 15 16 13 12 13 12 12 14 15 15 15 14 10 8 7 9 12 14 15 15 15 14 14 14 11 9 10 12 13
5 7 12 11 6 6 6 6 7 8 9 10 12 13 11 9 11 12 12 14 14 12 12 13 14 15 14 13 13 12 11 10 10 11 9 8 10 10 5 2 5 9 10 10 12 13 10 7 8 9 8 10 13 15 17 19 21 19 16 16 16 17 17 15 12 11 13 16 15 15 15 11 8 7 7 9 11 13 15 15 14 13 13 10 8 9 10 12
5 8 11 8 5 7 7 6 7 8 8 10 12 13 12 11 12 12 13 13 12 11 12 12 13 14 14 13 14 14 13 11 11 12 12 10 9 10 11 7 6 8 9 6 6 9 9 8 8 9 9 9 11 12 14 15 15 14 15 17 19 21 23 19 15 12 14 18 19 17 14 10 8 8 8 8 11 14 15 14 14 14 14 11 6 7 8 10
7 7 6 7 8 8 7 6 7 8 8 10 12 12 12 11 12 14 14 14 13 12 12 12 13 14 14 15 15 16 15 13 10 10 11 11 9 10 11 9 8 10 7 3 5 4 9 9 9 10 11 11 11 11 11 12 12 11 15 21 23 25 25 20 13 13 14 16 19 18 13 11 12 12 12 12 13 13 12 12 13 13 12 9 4 5 7 8
6 5 5 5 6 6 7 8 8 8 8 9 10 11 11 10 10 13 15 14 14 14 12 10 12 13 14 16 15 15 17 16 12 9 8 9 9 9 9 8 8 8 2 8 8 5 7 8 11 13 13 12 11 11 12 12 13 14 18 23 24 24 26 21 14 14 14 12 14 15 13 16 17 15 14 15 16 15 13 13 14 13 11 8 6 5 6 7
4 5 5 4 3 5 7 6 6 6 7 8 8 8 10 11 9 9 11 12 13 15 13 11 13 13 14 16 15 13 15 15 15 13 12 10 9 7 7 8 9 7 1 6 8 7 6 9 13 16 18 17 16 14 15 15 16 17 20 23 23 23 25 24 19 18 16 13 13 14 15 19 19 17 17 15 14 15 15 13 13 13 13 10 8 8 8 8
5 5 5 5 5 6 5 5 6 8 10 10 9 10 12 12 11 9 8 9 12 14 12 11 15 16 15 14 13 12 14 14 15 15 14 12 10 8 8 9 12 10 6 7 8 6 7 10 13 16 19 20 21 20 19 18 17 17 19 21 22 23 25 24 23 23 20 16 14 12 15 19 19 20 22 18 14 15 14 13 14 16 17 12 8 9 10 10
6 6 5 5 6 7 8 10 11 12 13 11 8 10 12 12 13 11 7 7 10 12 11 12 15 17 19 19 14 11 12 12 12 14 13 12 12 11 10 10 12 12 11 10 8 6 6 8 12 17 18 20 23 24 24 23 21 20 22 22 23 24 26 25 24 25 25 23 21 17 18 19 18 19 23 22 18 16 14 14 15 18 18 14 9 10 11 12
6 6 5 5 6 8 9 9 9 9 10 8 8 10 11 12 12 9 7 8 9 9 11 13 12 10 13 17 13 11 11 10 9 8 7 7 10 10 8 8 9 12 13 10 7 6 5 7 10 12 13 17 21 23 25 25 24 24 24 24 25 25 26 26 24 23 23 24 24 24 22 18 15 16 20 21 19 18 16 17 17 16 17 15 12 11 11 12
7 7 7 6 7 8 7 7 7 7 7 7 7 8 8 10 8 9 9 10 11 11 9 8 8 8 6 7 8 9 8 6 6 6 4 5 6 5 5 5 6 8 11 10 7 7 6 6 7 8 9 12 15 20 23 24 25 26 25 25 25 24 22 22 21 21 20 20 22 23 21 16 12 14 17 17 19 20 18 18 17 15 15 14 13 12 12 12
7 7 7 6 7 7 7 7 7 7 6 6 6 7 7 8 7 9 8 7 8 8 8 11 12 9 6 5 3 3 6 7 7 9 8 8 9 9 8 8 8 7 7 7 6 6 5 5 5 6 7 9 12 17 19 20 20 20 19 21 23 23 22 21 21 22 23 20 18 17 16 14 14 16 18 19 21 21 19 17 16 15 13 12 12 12 12 12
Wind_Direction
356 354 353 354 354 353 352 353 352 353 353 353 352 350 348 347 345 343 341 339 337 335 332 332 332 332 332 330 327 323 323 324 314 276 251 283 305 276 265 247 220 188 173 167 166 166 168 180 176 174 182 182 211 195 178 203 203 212 227 232 245 139 109 135 150 126 103 133 151 159 167 163 152 168 154 159 176 155 160 162 150 137 122 136 133 142 148 151
355 353 353 353 353 353 352 350 349 351 352 351 350 347 346 345 343 342 339 337 335 333 331 330 331 331 330 329 327 324 326 320 287 263 256 283 348 325 258 217 209 185 172 172 176 176 173 176 170 174 186 184 194 176 174 187 195 224 236 221 230 106 95 130 153 148 144 143 153 163 169 167 159 164 167 179 172 162 170 161 160 146 124 132 137 146 150 155
354 353 352 351 350 350 350 348 347 350 350 349 347 345 344 343 343 341 338 336 333 331 329 327 330 330 328 329 326 327 330 307 276 262 211 41 359 348 247 196 199 184 177 182 184 185 182 171 167 179 196 205 194 179 191 182 187 227 238 233 203 116 121 169 175 172 163 148 156 165 170 168 159 160 177 188 171 174 185 167 169 163 142 143 146 151 154 160
353 351 350 349 347 346 346 346 347 348 348 347 345 343 343 342 341 339 337 334 331 329 327 326 329 329 327 327 326 335 324 286 284 119 126 1 346 349 61 187 193 186 184 190 190 192 187 170 173 192 209 220 201 191 205 179 184 216 217 239 150 75 266 195 190 186 171 161 160 162 169 169 160 165 184 191 177 183 195 178 177 169 152 152 152 156 160 163
351 350 349 347 346 344 344 344 346 348 347 346 344 342 341 340 339 337 335 332 330 327 324 324 326 327 326 323 329 339 311 284 40 105 55 344 345 346 85 180 188 188 189 194 194 194 190 179 183 203 219 226 200 197 216 193 202 227 216 244 252 313 282 172 188 191 177 175 164 164 173 165 160 176 188 193 189 183 188 179 179 169 156 157 158 160 163 167
349 349 347 346 346 344 343 343 345 348 347 345 343 341 340 339 337 335 332 330 328 324 322 322 324 325 321 323 340 332 291 292 345 318 311 332 342 347 134 171 181 185 196 201 197 197 195 187 189 204 214 226 213 210 221 196 203 233 220 232 241 242 261 257 197 188 181 186 173 170 171 158 169 183 188 198 190 88 165 170 170 165 159 160 160 163 167 171
348 348 346 345 345 343 343 342 344 348 346 344 342 340 338 337 335 332 330 328 325 321 319 317 320 320 315 330 339 274 257 278 298 294 297 308 352 25 150 172 177 183 200 204 199 198 196 193 198 207 211 220 222 219 223 196 197 225 231 224 228 231 242 250 214 187 188 196 178 168 167 168 181 178 179 200 178 71 144 158 158 160 161 163 163 168 171 173
348 347 345 344 343 342 341 341 345 347 345 343 340 338 337 335 333 331 328 325 322 318 315 312 316 312 300 323 282 277 263 275 292 291 283 267 12 40 150 173 183 189 199 204 203 199 196 199 201 205 215 219 224 220 216 207 202 218 236 235 232 234 239 241 224 196 195 201 178 170 174 176 183 167 173 196 171 127 153 150 155 158 162 168 168 171 172 175
347 346 345 343 342 341 339 340 344 345 344 341 338 336 335 334 331 329 325 322 319 315 311 307 306 290 218 199 268 282 288 296 297 278 256 215 6 61 150 176 189 194 201 205 206 204 201 204 204 204 219 224 225 223 211 216 214 207 224 233 234 237 239 235 224 205 198 199 179 177 182 178 175 160 171 187 167 146 156 154 158 161 165 172 173 173 173 177
346 345 344 343 341 340 338 339 342 344 343 339 337 334 333 331 328 326 322 318 317 313 306 298 289 194 190 228 259 276 304 310 274 236 230 214 136 133 173 193 192 197 206 207 206 208 208 210 208 208 235 240 225 226 215 220 237 205 222 233 238 247 245 234 228 211 200 193 183 185 187 173 168 175 182 174 164 158 161 162 163 165 170 174 176 176 175 179
346 344 343 342 340 339 339 340 342 343 341 338 335 332 331 329 325 323 319 317 315 308 298 285 246 176 206 232 253 273 307 294 235 216 235 224 197 202 225 223 203 204 208 209 210 212 214 216 214 210 234 242 218 224 223 224 246 241 234 240 236 251 247 233 232 211 194 185 186 191 184 168 172 199 195 160 163 169 168 167 168 172 174 176 179 177 178 183
345 344 342 341 339 339 338 339 341 342 340 337 334 332 329 326 322 320 318 315 311 302 288 270 196 168 215 234 245 258 270 275 249 227 239 239 250 259 257 239 215 211 211 212 213 213 217 217 215 212 211 229 218 221 222 215 233 234 228 244 226 234 239 226 224 201 185 181 182 183 178 180 192 205 181 153 163 170 173 172 172 177 176 177 181 178 181 186
345 343 342 340 339 338 337 338 340 341 339 336 333 331 328 325 322 319 317 313 307 295 275 231 159 172 232 250 253 256 261 264 253 246 251 255 260 257 247 236 220 218 219 221 218 213 214 213 214 218 218 240 225 196 188 200 219 227 221 244 232 228 230 210 203 188 184 179 174 177 193 201 201 201 172 154 165 169 175 180 176 180 179 179 182 181 184 186
344 343 341 339 339 339 338 338 339 340 338 335 332 331 329 325 321 318 315 310 302 277 224 144 147 195 236 261 273 268 264 260 250 248 252 251 243 231 217 212 211 217 220 223 222 208 208 210 215 224 227 244 245 147 196 201 207 223 221 235 237 241 212 180 182 181 180 172 173 188 226 210 186 183 170 159 169 173 178 183 181 182 181 182 184 185 186 186
343 343 341 339 341 341 341 340 340 339 337 334 331 332 331 324 319 316 314 313 292 165 122 125 172 218 257 270 267 269 272 252 230 227 229 220 209 200 184 179 188 199 201 207 210 199 200 205 211 223 218 227 249 218 212 208 203 217 221 219 224 238 178 159 177 184 179 164 178 199 230 223 175 166 167 167 172 178 185 184 184 186 183 185 186 188 190 187
342 342 340 340 342 343 343 342 341 339 335 332 330 334 331 323 318 313 317 342 144 132 123 178 203 225 278 291 206 228 245 194 188 188 185 204 223 200 167 164 171 172 177 186 195 193 194 201 208 222 217 210 222 219 213 214 210 209 219 227 214 210 182 161 180 191 182 162 181 203 222 228 164 156 166 174 177 181 190 188 187 189 186 186 187 189 192 188
342 340 340 341 343 343 343 342 341 339 334 331 331 334 331 321 314 327 21 96 124 132 176 254 222 228 263 271 216 231 197 159 147 161 216 252 267 205 160 160 170 167 165 167 185 190 187 198 204 212 224 214 211 214 216 214 210 203 212 233 222 208 203 174 172 190 187 175 185 201 219 232 120 155 171 178 182 185 192 192 190 192 190 189 190 191 191 191
341 339 339 341 343 344 343 341 341 338 333 331 333 334 327 308 301 25 102 120 120 167 216 252 234 237 238 213 232 200 146 155 167 269 273 266 245 193 169 166 162 163 168 166 184 188 182 195 202 204 213 212 209 208 215 213 209 208 206 222 225 215 218 194 170 184 189 190 194 198 215 222 171 165 184 184 186 192 196 195 192 193 193 191 192 194 192 193
340 340 340 341 343 344 342 341 340 338 333 335 340 335 320 263 243 205 196 185 182 223 246 190 197 256 314 235 218 180 173 231 273 281 264 229 191 182 181 177 160 164 178 175 184 188 181 190 202 209 206 204 208 208 215 218 214 216 213 218 226 217 216 209 187 182 186 194 202 200 213 219 196 178 188 188 187 198 203 201 198 195 195 194 194 197 196 196
339 340 342 343 344 342 340 340 340 338 337 344 344 330 289 268 258 204 204 221 230 251 272 252 218 258 289 275 248 247 260 257 256 259 221 187 174 179 185 179 171 178 190 181 178 185 189 197 204 208 207 203 206 211 217 223 224 224 220 221 230 231 213 201 193 184 187 197 205 206 215 222 217 199 188 187 189 198 205 205 206 202 198 198 198 199 199 200
338 340 342 343 343 341 339 340 340 337 345 352 341 313 325 3 325 333 319 268 251 246 257 256 241 253 263 263 265 270 280 253 234 233 208 192 184 183 181 179 184 189 197 191 175 179 197 209 209 206 209 207 206 212 217 224 229 226 227 225 227 236 215 184 183 184 192 206 209 208 219 223 226 219 193 191 196 199 204 205 208 208 204 202 201 203 202 203
337 339 341 342 343 340 339 340 337 334 354 354 332 309 57 44 0 339 315 287 273 250 247 249 245 252 255 257 258 253 257 246 234 223 198 190 194 190 178 184 197 192 190 194 179 181 205 219 213 203 210 214 208 211 215 221 227 226 231 232 226 230 206 166 178 189 194 211 214 207 222 228 223 224 211 203 205 205 206 208 209 209 208 205 203 203 204 204
335 340 341 342 342 339 339 339 336 340 355 346 310 332 74 47 1 325 274 282 286 253 232 236 236 242 250 254 238 211 223 234 233 215 187 187 201 198 187 190 203 199 186 194 193 190 205 216 213 204 209 216 211 209 212 218 225 227 230 230 229 222 201 180 190 195 196 211 228 217 226 238 230 230 225 216 215 212 208 211 212 211 211 210 206 204 204 204
336 341 342 342 342 340 339 339 340 352 341 327 284 269 79 359 351 331 284 267 283 260 221 227 231 237 248 255 185 189 215 225 226 211 180 185 201 199 203 199 202 206 193 196 204 210 214 211 209 206 206 213 213 207 211 217 220 226 228 230 233 213 203 207 193 190 201 209 223 224 229 240 234 232 230 221 219 217 212 211 212 211 212 212 211 208 206 205
339 341 341 342 342 339 339 339 360 339 330 318 217 179 37 338 338 327 298 257 271 253 192 207 215 221 202 142 163 189 220 221 220 214 176 187 200 192 201 206 207 210 199 198 206 216 217 199 200 206 200 209 217 211 211 216 219 223 223 228 236 221 209 211 194 186 209 214 209 216 235 244 228 230 234 227 219 216 212 211 210 208 208 209 212 210 208 207
339 339 340 341 340 340 342 343 335 330 322 322 140 176 308 326 327 314 281 258 271 227 144 183 196 175 170 166 175 185 211 208 207 204 183 192 203 201 203 200 207 216 204 196 205 222 211 182 187 206 204 207 217 219 213 214 222 226 216 219 231 233 222 211 197 197 219 222 202 210 239 255 235 231 232 227 225 219 212 212 211 206 204 205 208 209 207 207
338 337 337 338 339 341 341 311 322 325 313 94 79 306 311 316 319 305 249 255 259 200 123 174 176 155 170 171 173 181 188 138 164 191 190 193 198 207 216 199 196 219 206 189 203 212 201 189 188 205 209 208 212 218 211 211 222 229 217 213 220 229 227 210 201 212 229 229 210 212 229 249 250 245 234 226 228 224 216 215 213 208 205 204 204 206 207 206
336 335 335 335 336 335 311 280 307 315 302 341 318 301 315 314 303 260 253 270 227 126 129 145 116 152 181 169 187 216 297 149 196 184 182 192 195 201 217 208 203 208 195 194 206 185 190 202 194 196 209 211 212 215 209 209 220 232 229 214 210 219 225 216 212 221 231 235 231 221 221 242 254 246 232 220 221 224 222 219 217 212 209 205 204 204 205 205
334 333 333 333 333 334 304 262 275 279 285 297 298 304 314 304 269 221 258 267 172 149 157 140 136 172 172 167 202 228 258 240 248 149 169 192 201 209 227 218 213 207 196 207 221 183 182 209 203 195 209 215 213 214 211 211 217 228 234 215 208 216 223 224 222 222 228 232 235 224 215 228 253 239 219 216 219 225 228 225 219 215 211 207 205 204 202 202
333 330 332 332 330 332 313 264 263 280 285 277 299 315 304 272 224 224 228 234 229 155 144 157 160 167 177 187 200 207 224 228 191 151 172 186 198 211 242 233 220 214 201 209 227 217 178 200 206 205 211 214 216 216 213 214 216 218 220 214 214 218 223 229 225 222 229 228 229 229 217 213 245 246 217 212 222 230 235 233 224 218 213 209 207 204 200 199
331 329 330 328 319 304 288 273 263 281 271 286 316 307 274 233 220 237 215 221 299 166 155 178 167 161 187 206 201 188 205 215 183 174 179 180 191 198 207 219 213 214 208 205 221 220 191 182 199 207 210 211 217 215 210 213 216 215 215 215 213 210 216 228 224 224 237 230 222 231 226 214 231 251 233 215 222 233 243 240 232 221 212 207 206 206 201 198
329 328 327 323 314 282 251 254 261 257 259 310 314 281 238 216 227 234 204 104 235 180 175 188 172 173 191 211 225 206 212 213 190 189 190 186 189 194 201 204 193 202 213 203 207 214 208 200 195 193 201 207 209 205 201 209 213 215 218 215 210 205 206 216 217 217 231 234 226 230 230 221 228 246 249 239 225 229 241 250 254 240 215 203 201 204 202 198
328 328 327 325 316 270 246 257 264 261 270 292 285 240 220 232 230 216 203 202 154 112 152 183 176 186 200 218 215 204 229 218 190 195 199 195 196 198 204 208 201 205 216 205 199 205 208 209 204 195 190 200 206 204 199 200 204 209 213 210 208 211 212 212 217 218 224 231 230 228 231 232 235 241 244 246 241 237 245 256 261 256 227 207 200 200 200 198
328 329 329 326 311 272 257 262 256 250 250 245 233 209 217 233 231 206 211 216 202 109 148 170 198 209 216 230 222 206 238 215 185 198 201 195 205 204 203 210 209 212 222 210 204 205 207 209 206 202 190 189 202 212 209 196 199 208 212 216 218 219 221 217 215 220 224 228 223 213 214 231 237 235 231 237 242 244 254 260 257 243 226 213 202 198 198 199
331 332 326 316 299 277 262 250 239 219 205 206 209 212 218 226 226 219 221 219 221 220 201 202 236 237 229 228 224 215 234 216 186 202 208 200 209 208 203 209 206 208 219 214 204 207 218 221 200 199 197 189 197 210 211 202 201 206 212 220 221 219 225 230 231 231 230 232 224 207 206 233 241 244 228 229 243 248 253 256 247 232 218 209 203 201 200 199
331 329 319 299 278 273 249 233 210 195 205 214 214 219 224 226 225 224 218 217 228 232 231 229 231 242 242 228 218 198 199 221 200 202 215 210 214 212 207 208 201 203 215 218 208 204 221 229 192 193 201 197 197 203 205 209 205 197 209 219 221 222 227 233 235 236 234 234 230 213 213 231 239 243 236 239 251 252 250 248 240 229 211 203 203 201 201 200
326 324 314 290 281 278 240 215 189 194 213 223 223 228 230 229 233 238 226 216 235 229 233 236 223 230 234 229 226 203 189 206 206 208 218 209 213 213 209 209 201 205 215 220 223 210 224 236 190 189 201 198 196 201 206 215 217 203 208 213 216 224 232 238 231 224 226 232 233 224 223 226 229 236 232 234 242 243 243 247 243 228 206 205 208 202 201 202
314 310 295 272 271 321 214 184 182 198 216 223 234 239 239 236 235 235 230 232 253 232 229 236 220 218 228 232 227 200 188 194 194 206 220 206 203 203 206 209 199 203 212 217 224 205 211 241 200 187 199 196 193 203 208 212 217 223 222 209 209 217 220 227 229 224 225 230 235 233 232 230 229 232 219 214 222 225 227 237 244 231 212 210 210 203 201 202
308 304 283 154 117 64 76 161 186 211 219 221 233 235 236 242 237 234 238 240 245 238 232 238 231 221 227 235 228 190 189 202 193 197 213 203 185 186 201 209 196 199 207 210 224 215 199 239 218 185 194 197 192 204 210 201 208 223 231 215 214 222 218 218 225 230 233 235 236 235 236 230 227 233 225 214 213 219 230 245 258 254 237 223 211 203 200 197
315 300 280 109 113 73 63 193 215 223 222 226 237 235 235 242 238 236 239 239 241 239 236 239 238 233 230 235 240 212 200 216 212 206 210 195 178 181 203 211 197 197 205 208 219 226 202 220 232 189 189 199 196 202 211 205 199 208 217 216 214 215 218 225 226 225 232 239 240 239 241 231 215 224 229 226 225 231 248 261 262 263 259 240 215 205 200 196
312 283 134 102 125 317 315 244 230 225 230 235 240 242 244 249 247 239 234 235 239 241 243 246 243 242 239 235 237 226 216 226 223 221 218 201 203 205 199 209 209 199 201 206 212 219 208 208 225 206 188 204 210 204 210 216 211 202 204 214 217 210 212 225 227 222 226 236 238 241 247 239 217 205 213 226 236 237 240 250 255 259 262 252 222 206 199 194
289 263 313 346 276 269 276 251 236 234 237 240 246 250 254 259 256 249 241 237 237 235 238 244 245 244 243 238 236 233 228 230 224 222 225 213 216 215 162 179 225 215 206 212 211 210 212 211 221 224 211 213 217 211 211 217 221 218 212 211 216 217 217 223 226 221 225 231 235 241 246 241 227 210 197 212 232 238 236 244 255 260 263 258 227 208 199 194
279 281 300 305 268 236 252 252 246 241 237 244 254 256 258 257 251 249 243 236 233 228 225 231 234 235 238 237 235 235 233 236 236 231 234 232 223 228 223 189 233 225 210 213 209 201 207 215 216 228 231 222 221 220 216 215 220 226 221 213 215 218 219 226 228 225 232 232 229 237 242 234 224 217 203 207 228 236 235 242 254 262 268 264 227 204 200 196
295 285 285 281 227 219 242 251 254 253 248 249 252 256 259 257 253 249 243 236 230 225 225 227 227 227 232 234 233 236 234 234 240 235 236 243 230 229 239 237 237 230 208 205 206 189 194 208 208 218 227 219 219 220 212 207 213 226 225 218 219 220 220 225 227 227 236 233 229 235 238 229 219 210 206 220 235 235 228 233 248 256 264 266 231 194 196 194
295 277 258 243 220 219 242 264 274 276 271 266 265 268 264 255 249 246 246 247 241 234 232 228 225 226 228 230 232 234 233 233 237 231 228 235 229 223 229 226 228 226 218 316 327 210 197 204 203 211 217 210 211 215 207 201 207 220 226 224 222 220 220 223 224 227 232 230 231 238 239 232 224 209 207 219 227 228 227 236 247 249 253 258 232 187 192 192
298 286 277 255 223 226 246 257 260 260 269 276 275 273 266 259 251 240 240 247 246 243 245 238 229 225 221 223 228 228 227 227 230 231 228 227 220 211 204 201 212 212 245 329 307 240 219 218 208 217 228 225 220 217 213 212 213 214 220 225 224 221 222 225 226 229 231 227 231 238 241 240 232 215 210 212 214 225 237 242 241 239 242 244 225 203 196 194
277 279 291 303 293 270 255 245 249 260 278 284 281 276 275 276 274 250 234 239 241 238 241 241 233 227 220 219 222 226 225 223 224 229 232 229 222 206 187 199 216 204 203 281 247 218 236 231 214 221 234 239 239 232 223 221 223 221 219 221 224 224 225 227 229 231 232 232 233 231 231 237 235 229 225 216 212 228 238 236 237 244 252 247 216 195 193 193
266 276 300 315 295 278 280 299 315 311 296 287 277 272 275 276 276 267 245 243 244 235 233 234 229 229 230 225 224 228 227 225 225 227 229 229 231 232 220 218 222 208 202 233 222 209 237 235 225 230 233 236 239 238 234 231 229 229 226 221 221 223 225 228 232 233 233 237 241 231 223 227 230 234 236 232 228 234 237 236 243 252 258 252 209 189 198 196
275 276 293 303 282 280 296 306 311 304 289 284 275 264 268 271 268 268 271 272 258 239 230 231 228 226 231 231 231 231 224 224 226 222 222 225 225 232 236 229 222 213 214 230 223 212 233 235 234 239 239 237 237 235 236 236 232 230 231 228 226 225 224 227 232 234 234 239 243 240 234 232 229 229 236 239 240 241 243 246 249 252 256 252 223 206 208 200
287 291 296 300 287 281 283 282 284 286 279 275 269 261 263 267 268 280 297 289 276 258 238 234 239 245 241 232 229 230 229 237 245 230 222 226 221 223 234 237 229 214 213 223 214 198 220 230 229 240 246 241 237 235 235 237 235 232 230 230 232 230 227 227 229 230 233 237 239 239 241 239 230 228 234 238 239 241 244 247 247 248 250 247 233 222 215 206
278 287 287 289 287 280 274 267 263 268 270 264 263 266 263 262 281 317 312 282 273 277 275 280 302 317 292 243 223 232 243 263 279 279 293 278 251 247 253 254 250 222 210 215 207 193 217 236 228 238 248 239 233 232 233 236 239 237 232 228 229 231 232 230 228 227 229 232 233 236 239 237 226 226 231 233 233 237 241 243 244 244 245 242 234 225 217 209
258 268 264 264 276 278 277 275 262 256 264 263 269 281 277 276 304 326 314 285 275 289 319 340 337 326 300 271 249 300 328 331 308 296 298 285 272 274 274 268 268 256 228 221 216 203 220 242 230 231 247 248 241 236 234 235 238 238 233 228 229 231 233 235 233 228 227 229 230 232 234 234 230 229 229 228 230 234 237 240 243 244 244 241 236 232 226 214